Year,Month,Day,Hour,Minute,Value (Times are PST for temperature in C)
2017,08,19,00,00,17.20
2017,08,19,00,01,17.20
2017,08,19,00,02,17.20
2017,08,19,00,03,17.20
2017,08,19,00,04,17.20
2017,08,19,00,05,17.20
2017,08,19,00,06,17.20
2017,08,19,00,07,17.20
2017,08,19,00,08,17.20
2017,08,19,00,09,17.20
2017,08,19,00,10,17.20
2017,08,19,00,11,17.20
2017,08,19,00,12,17.20
2017,08,19,00,13,17.20
2017,08,19,00,14,17.20
2017,08,19,00,15,17.10
2017,08,19,00,16,17.10
2017,08,19,00,17,17.10
2017,08,19,00,18,17.10
2017,08,19,00,19,17.10
2017,08,19,00,20,17.10
2017,08,19,00,21,17.10
2017,08,19,00,22,17.10
2017,08,19,00,23,17.10
2017,08,19,00,24,17.10
2017,08,19,00,25,17.10
2017,08,19,00,26,17.10
2017,08,19,00,27,17.10
2017,08,19,00,28,17.10
2017,08,19,00,29,17.10
2017,08,19,00,30,17.10
2017,08,19,00,31,17.10
2017,08,19,00,32,17.10
2017,08,19,00,33,17.00
2017,08,19,00,34,17.00
2017,08,19,00,35,17.00
2017,08,19,00,36,17.00
2017,08,19,00,37,17.00
2017,08,19,00,38,17.00
2017,08,19,00,39,16.90
2017,08,19,00,40,16.90
2017,08,19,00,41,16.90
2017,08,19,00,42,16.90
2017,08,19,00,43,16.90
2017,08,19,00,44,16.90
2017,08,19,00,45,16.90
2017,08,19,00,46,16.80
2017,08,19,00,47,16.80
2017,08,19,00,48,16.80
2017,08,19,00,49,16.80
2017,08,19,00,50,16.80
2017,08,19,00,51,16.80
2017,08,19,00,52,16.70
2017,08,19,00,53,16.70
2017,08,19,00,54,16.70
2017,08,19,00,55,16.70
2017,08,19,00,56,16.70
2017,08,19,00,57,16.60
2017,08,19,00,58,16.60
2017,08,19,00,59,16.60
2017,08,19,01,00,16.60
2017,08,19,01,01,16.50
2017,08,19,01,02,16.50
2017,08,19,01,03,16.50
2017,08,19,01,04,16.40
2017,08,19,01,05,16.40
2017,08,19,01,06,16.40
2017,08,19,01,07,16.40
2017,08,19,01,08,16.30
2017,08,19,01,09,16.30
2017,08,19,01,10,16.30
2017,08,19,01,11,16.30
2017,08,19,01,12,16.20
2017,08,19,01,13,16.20
2017,08,19,01,14,16.20
2017,08,19,01,15,16.20
2017,08,19,01,16,16.10
2017,08,19,01,17,16.10
2017,08,19,01,18,16.10
2017,08,19,01,19,16.10
2017,08,19,01,20,16.00
2017,08,19,01,21,16.00
2017,08,19,01,22,16.00
2017,08,19,01,23,16.00
2017,08,19,01,24,15.90
2017,08,19,01,25,15.90
2017,08,19,01,26,15.90
2017,08,19,01,27,15.90
2017,08,19,01,28,15.80
2017,08,19,01,29,15.80
2017,08,19,01,30,15.80
2017,08,19,01,31,15.80
2017,08,19,01,32,15.80
2017,08,19,01,33,15.80
2017,08,19,01,34,15.70
2017,08,19,01,35,15.70
2017,08,19,01,36,15.70
2017,08,19,01,37,15.70
2017,08,19,01,38,15.70
2017,08,19,01,39,15.60
2017,08,19,01,40,15.60
2017,08,19,01,41,15.60
2017,08,19,01,42,15.60
2017,08,19,01,43,15.60
2017,08,19,01,44,15.60
2017,08,19,01,45,15.50
2017,08,19,01,46,15.50
2017,08,19,01,47,15.50
2017,08,19,01,48,15.50
2017,08,19,01,49,15.50
2017,08,19,01,50,15.50
2017,08,19,01,51,15.50
2017,08,19,01,52,15.50
2017,08,19,01,53,15.50
2017,08,19,01,54,15.50
2017,08,19,01,55,15.50
2017,08,19,01,56,15.50
2017,08,19,01,57,15.50
2017,08,19,01,58,15.50
2017,08,19,01,59,15.40
2017,08,19,02,00,15.40
2017,08,19,02,01,15.40
2017,08,19,02,02,15.40
2017,08,19,02,03,15.40
2017,08,19,02,04,15.40
2017,08,19,02,05,15.40
2017,08,19,02,06,15.40
2017,08,19,02,07,15.40
2017,08,19,02,08,15.40
2017,08,19,02,09,15.40
2017,08,19,02,10,15.40
2017,08,19,02,11,15.40
2017,08,19,02,12,15.30
2017,08,19,02,13,15.30
2017,08,19,02,14,15.30
2017,08,19,02,15,15.30
2017,08,19,02,16,15.30
2017,08,19,02,17,15.30
2017,08,19,02,18,15.30
2017,08,19,02,19,15.30
2017,08,19,02,20,15.30
2017,08,19,02,21,15.30
2017,08,19,02,22,15.30
2017,08,19,02,23,15.20
2017,08,19,02,24,15.20
2017,08,19,02,25,15.20
2017,08,19,02,26,15.20
2017,08,19,02,27,15.20
2017,08,19,02,28,15.20
2017,08,19,02,29,15.20
2017,08,19,02,30,15.20
2017,08,19,02,31,15.20
2017,08,19,02,32,15.20
2017,08,19,02,33,15.20
2017,08,19,02,34,15.10
2017,08,19,02,35,15.10
2017,08,19,02,36,15.10
2017,08,19,02,37,15.10
2017,08,19,02,38,15.10
2017,08,19,02,39,15.10
2017,08,19,02,40,15.10
2017,08,19,02,41,15.10
2017,08,19,02,42,15.10
2017,08,19,02,43,15.10
2017,08,19,02,44,15.10
2017,08,19,02,45,15.10
2017,08,19,02,46,15.10
2017,08,19,02,47,15.10
2017,08,19,02,48,15.10
2017,08,19,02,49,15.10
2017,08,19,02,50,15.10
2017,08,19,02,51,15.10
2017,08,19,02,52,15.10
2017,08,19,02,53,15.10
2017,08,19,02,54,15.10
2017,08,19,02,55,15.10
2017,08,19,02,56,15.10
2017,08,19,02,57,15.10
2017,08,19,02,58,15.10
2017,08,19,02,59,15.10
2017,08,19,03,00,15.10
2017,08,19,03,01,15.10
2017,08,19,03,02,15.00
2017,08,19,03,03,15.00
2017,08,19,03,04,15.00
2017,08,19,03,05,15.00
2017,08,19,03,06,14.90
2017,08,19,03,07,14.90
2017,08,19,03,08,14.90
2017,08,19,03,09,14.90
2017,08,19,03,10,14.90
2017,08,19,03,11,14.80
2017,08,19,03,12,14.80
2017,08,19,03,13,14.80
2017,08,19,03,14,14.80
2017,08,19,03,15,14.80
2017,08,19,03,16,14.70
2017,08,19,03,17,14.70
2017,08,19,03,18,14.70
2017,08,19,03,19,14.70
2017,08,19,03,20,14.60
2017,08,19,03,21,14.60
2017,08,19,03,22,14.60
2017,08,19,03,23,14.60
2017,08,19,03,24,14.50
2017,08,19,03,25,14.50
2017,08,19,03,26,14.40
2017,08,19,03,27,14.40
2017,08,19,03,28,14.40
2017,08,19,03,29,14.30
2017,08,19,03,30,14.30
2017,08,19,03,31,14.30
2017,08,19,03,32,14.30
2017,08,19,03,33,14.20
2017,08,19,03,34,14.20
2017,08,19,03,35,14.20
2017,08,19,03,36,14.20
2017,08,19,03,37,14.20
2017,08,19,03,38,14.10
2017,08,19,03,39,14.10
2017,08,19,03,40,14.10
2017,08,19,03,41,14.10
2017,08,19,03,42,14.10
2017,08,19,03,43,14.10
2017,08,19,03,44,14.10
2017,08,19,03,45,14.10
2017,08,19,03,46,14.10
2017,08,19,03,47,14.10
2017,08,19,03,48,14.10
2017,08,19,03,49,14.10
2017,08,19,03,50,14.00
2017,08,19,03,51,14.00
2017,08,19,03,52,14.00
2017,08,19,03,53,14.00
2017,08,19,03,54,14.00
2017,08,19,03,55,14.00
2017,08,19,03,56,14.00
2017,08,19,03,57,13.90
2017,08,19,03,58,13.90
2017,08,19,03,59,13.90
2017,08,19,04,00,13.90
2017,08,19,04,01,13.90
2017,08,19,04,02,13.80
2017,08,19,04,03,13.80
2017,08,19,04,04,13.80
2017,08,19,04,05,13.80
2017,08,19,04,06,13.80
2017,08,19,04,07,13.80
2017,08,19,04,08,13.80
2017,08,19,04,09,13.80
2017,08,19,04,10,13.70
2017,08,19,04,11,13.70
2017,08,19,04,12,13.70
2017,08,19,04,13,13.70
2017,08,19,04,14,13.70
2017,08,19,04,15,13.70
2017,08,19,04,16,13.60
2017,08,19,04,17,13.60
2017,08,19,04,18,13.60
2017,08,19,04,19,13.60
2017,08,19,04,20,13.60
2017,08,19,04,21,13.60
2017,08,19,04,22,13.50
2017,08,19,04,23,13.50
2017,08,19,04,24,13.50
2017,08,19,04,25,13.50
2017,08,19,04,26,13.50
2017,08,19,04,27,13.50
2017,08,19,04,28,13.50
2017,08,19,04,29,13.50
2017,08,19,04,30,13.40
2017,08,19,04,31,13.40
2017,08,19,04,32,13.40
2017,08,19,04,33,13.40
2017,08,19,04,34,13.40
2017,08,19,04,35,13.30
2017,08,19,04,36,13.30
2017,08,19,04,37,13.30
2017,08,19,04,38,13.30
2017,08,19,04,39,13.30
2017,08,19,04,40,13.20
2017,08,19,04,41,13.20
2017,08,19,04,42,13.20
2017,08,19,04,43,13.20
2017,08,19,04,44,13.10
2017,08,19,04,45,13.10
2017,08,19,04,46,13.10
2017,08,19,04,47,13.10
2017,08,19,04,48,13.00
2017,08,19,04,49,13.00
2017,08,19,04,50,13.00
2017,08,19,04,51,13.00
2017,08,19,04,52,13.00
2017,08,19,04,53,12.90
2017,08,19,04,54,12.90
2017,08,19,04,55,12.90
2017,08,19,04,56,12.90
2017,08,19,04,57,12.90
2017,08,19,04,58,12.90
2017,08,19,04,59,12.90
2017,08,19,05,00,12.90
2017,08,19,05,01,12.90
2017,08,19,05,02,12.90
2017,08,19,05,03,12.90
2017,08,19,05,04,12.90
2017,08,19,05,05,12.90
2017,08,19,05,06,12.90
2017,08,19,05,07,12.90
2017,08,19,05,08,12.90
2017,08,19,05,09,13.00
2017,08,19,05,10,13.00
2017,08,19,05,11,13.00
2017,08,19,05,12,13.00
2017,08,19,05,13,13.00
2017,08,19,05,14,13.00
2017,08,19,05,15,13.10
2017,08,19,05,16,13.10
2017,08,19,05,17,13.10
2017,08,19,05,18,13.10
2017,08,19,05,19,13.10
2017,08,19,05,20,13.10
2017,08,19,05,21,13.10
2017,08,19,05,22,13.20
2017,08,19,05,23,13.20
2017,08,19,05,24,13.20
2017,08,19,05,25,13.20
2017,08,19,05,26,13.20
2017,08,19,05,27,13.20
2017,08,19,05,28,13.10
2017,08,19,05,29,13.10
2017,08,19,05,30,13.10
2017,08,19,05,31,13.10
2017,08,19,05,32,13.10
2017,08,19,05,33,13.10
2017,08,19,05,34,13.00
2017,08,19,05,35,13.00
2017,08,19,05,36,12.90
2017,08,19,05,37,12.90
2017,08,19,05,38,12.80
2017,08,19,05,39,12.80
2017,08,19,05,40,12.70
2017,08,19,05,41,12.70
2017,08,19,05,42,12.70
2017,08,19,05,43,12.60
2017,08,19,05,44,12.60
2017,08,19,05,45,12.60
2017,08,19,05,46,12.50
2017,08,19,05,47,12.50
2017,08,19,05,48,12.50
2017,08,19,05,49,12.40
2017,08,19,05,50,12.40
2017,08,19,05,51,12.40
2017,08,19,05,52,12.40
2017,08,19,05,53,12.30
2017,08,19,05,54,12.30
2017,08,19,05,55,12.30
2017,08,19,05,56,12.20
2017,08,19,05,57,12.20
2017,08,19,05,58,12.20
2017,08,19,05,59,12.10
2017,08,19,06,00,12.10
2017,08,19,06,01,12.00
2017,08,19,06,02,12.00
2017,08,19,06,03,12.00
2017,08,19,06,04,11.90
2017,08,19,06,05,11.90
2017,08,19,06,06,11.90
2017,08,19,06,07,11.90
2017,08,19,06,08,11.90
2017,08,19,06,09,11.80
2017,08,19,06,10,11.80
2017,08,19,06,11,11.80
2017,08,19,06,12,11.80
2017,08,19,06,13,11.80
2017,08,19,06,14,11.80
2017,08,19,06,15,11.80
2017,08,19,06,16,11.80
2017,08,19,06,17,11.80
2017,08,19,06,18,11.80
2017,08,19,06,19,11.80
2017,08,19,06,20,11.80
2017,08,19,06,21,11.80
2017,08,19,06,22,11.80
2017,08,19,06,23,11.80
2017,08,19,06,24,11.70
2017,08,19,06,25,11.70
2017,08,19,06,26,11.70
2017,08,19,06,27,11.70
2017,08,19,06,28,11.70
2017,08,19,06,29,11.70
2017,08,19,06,30,11.70
2017,08,19,06,31,11.70
2017,08,19,06,32,11.70
2017,08,19,06,33,11.70
2017,08,19,06,34,11.60
2017,08,19,06,35,11.60
2017,08,19,06,36,11.60
2017,08,19,06,37,11.60
2017,08,19,06,38,11.60
2017,08,19,06,39,11.60
2017,08,19,06,40,11.60
2017,08,19,06,41,11.60
2017,08,19,06,42,11.50
2017,08,19,06,43,11.50
2017,08,19,06,44,11.50
2017,08,19,06,45,11.40
2017,08,19,06,46,11.40
2017,08,19,06,47,11.40
2017,08,19,06,48,11.40
2017,08,19,06,49,11.30
2017,08,19,06,50,11.30
2017,08,19,06,51,11.30
2017,08,19,06,52,11.30
2017,08,19,06,53,11.30
2017,08,19,06,54,11.30
2017,08,19,06,55,11.30
2017,08,19,06,56,11.30
2017,08,19,06,57,11.30
2017,08,19,06,58,11.30
2017,08,19,06,59,11.30
2017,08,19,07,00,11.30
2017,08,19,07,01,11.40
2017,08,19,07,02,11.40
2017,08,19,07,03,11.40
2017,08,19,07,04,11.40
2017,08,19,07,05,11.40
2017,08,19,07,06,11.40
2017,08,19,07,07,11.40
2017,08,19,07,08,11.40
2017,08,19,07,09,11.40
2017,08,19,07,10,11.40
2017,08,19,07,11,11.40
2017,08,19,07,12,11.50
2017,08,19,07,13,11.50
2017,08,19,07,14,11.50
2017,08,19,07,15,11.50
2017,08,19,07,16,11.50
2017,08,19,07,17,11.60
2017,08,19,07,18,11.60
2017,08,19,07,19,11.60
2017,08,19,07,20,11.60
2017,08,19,07,21,11.60
2017,08,19,07,22,11.70
2017,08,19,07,23,11.70
2017,08,19,07,24,11.70
2017,08,19,07,25,11.80
2017,08,19,07,26,11.80
2017,08,19,07,27,11.90
2017,08,19,07,28,11.90
2017,08,19,07,29,12.00
2017,08,19,07,30,12.10
2017,08,19,07,31,12.20
2017,08,19,07,32,12.30
2017,08,19,07,33,12.40
2017,08,19,07,34,12.50
2017,08,19,07,35,12.60
2017,08,19,07,36,12.80
2017,08,19,07,37,12.90
2017,08,19,07,38,13.00
2017,08,19,07,39,13.10
2017,08,19,07,40,13.10
2017,08,19,07,41,13.20
2017,08,19,07,42,13.30
2017,08,19,07,43,13.40
2017,08,19,07,44,13.40
2017,08,19,07,45,13.40
2017,08,19,07,46,13.50
2017,08,19,07,47,13.50
2017,08,19,07,48,13.50
2017,08,19,07,49,13.60
2017,08,19,07,50,13.60
2017,08,19,07,51,13.70
2017,08,19,07,52,13.70
2017,08,19,07,53,13.70
2017,08,19,07,54,13.70
2017,08,19,07,55,13.80
2017,08,19,07,56,13.80
2017,08,19,07,57,13.80
2017,08,19,07,58,13.80
2017,08,19,07,59,13.80
2017,08,19,08,00,13.80
2017,08,19,08,01,13.80
2017,08,19,08,02,13.80
2017,08,19,08,03,13.90
2017,08,19,08,04,13.90
2017,08,19,08,05,13.90
2017,08,19,08,06,13.90
2017,08,19,08,07,13.90
2017,08,19,08,08,13.90
2017,08,19,08,09,14.00
2017,08,19,08,10,14.00
2017,08,19,08,11,14.00
2017,08,19,08,12,14.10
2017,08,19,08,13,14.10
2017,08,19,08,14,14.10
2017,08,19,08,15,14.20
2017,08,19,08,16,14.20
2017,08,19,08,17,14.20
2017,08,19,08,18,14.30
2017,08,19,08,19,14.30
2017,08,19,08,20,14.30
2017,08,19,08,21,14.40
2017,08,19,08,22,14.40
2017,08,19,08,23,14.50
2017,08,19,08,24,14.50
2017,08,19,08,25,14.50
2017,08,19,08,26,14.50
2017,08,19,08,27,14.60
2017,08,19,08,28,14.60
2017,08,19,08,29,14.60
2017,08,19,08,30,14.60
2017,08,19,08,31,14.60
2017,08,19,08,32,14.60
2017,08,19,08,33,14.70
2017,08,19,08,34,14.70
2017,08,19,08,35,14.70
2017,08,19,08,36,14.70
2017,08,19,08,37,14.70
2017,08,19,08,38,14.80
2017,08,19,08,39,14.80
2017,08,19,08,40,14.80
2017,08,19,08,41,14.90
2017,08,19,08,42,14.90
2017,08,19,08,43,14.90
2017,08,19,08,44,15.00
2017,08,19,08,45,15.00
2017,08,19,08,46,15.00
2017,08,19,08,47,15.00
2017,08,19,08,48,15.10
2017,08,19,08,49,15.10
2017,08,19,08,50,15.10
2017,08,19,08,51,15.20
2017,08,19,08,52,15.20
2017,08,19,08,53,15.20
2017,08,19,08,54,15.20
2017,08,19,08,55,15.20
2017,08,19,08,56,15.20
2017,08,19,08,57,15.20
2017,08,19,08,58,15.30
2017,08,19,08,59,15.30
2017,08,19,09,00,15.40
2017,08,19,09,01,15.40
2017,08,19,09,02,15.40
2017,08,19,09,03,15.40
2017,08,19,09,04,15.50
2017,08,19,09,05,15.50
2017,08,19,09,06,15.50
2017,08,19,09,07,15.60
2017,08,19,09,08,15.60
2017,08,19,09,09,15.60
2017,08,19,09,10,15.70
2017,08,19,09,11,15.70
2017,08,19,09,12,15.80
2017,08,19,09,13,15.80
2017,08,19,09,14,15.90
2017,08,19,09,15,15.90
2017,08,19,09,16,15.90
2017,08,19,09,17,16.00
2017,08,19,09,18,16.00
2017,08,19,09,19,16.00
2017,08,19,09,20,16.10
2017,08,19,09,21,16.10
2017,08,19,09,22,16.10
2017,08,19,09,23,16.20
2017,08,19,09,24,16.20
2017,08,19,09,25,16.20
2017,08,19,09,26,16.20
2017,08,19,09,27,16.20
2017,08,19,09,28,16.20
2017,08,19,09,29,16.20
2017,08,19,09,30,16.20
2017,08,19,09,31,16.20
2017,08,19,09,32,16.20
2017,08,19,09,33,16.20
2017,08,19,09,34,16.30
2017,08,19,09,35,16.30
2017,08,19,09,36,16.40
2017,08,19,09,37,16.50
2017,08,19,09,38,16.60
2017,08,19,09,39,16.60
2017,08,19,09,40,16.60
2017,08,19,09,41,16.70
2017,08,19,09,42,16.70
2017,08,19,09,43,16.60
2017,08,19,09,44,16.60
2017,08,19,09,45,16.60
2017,08,19,09,46,16.60
2017,08,19,09,47,16.60
2017,08,19,09,48,16.70
2017,08,19,09,49,16.70
2017,08,19,09,50,16.80
2017,08,19,09,51,16.80
2017,08,19,09,52,16.90
2017,08,19,09,53,16.90
2017,08,19,09,54,16.90
2017,08,19,09,55,16.90
2017,08,19,09,56,16.90
2017,08,19,09,57,16.90
2017,08,19,09,58,16.90
2017,08,19,09,59,16.90
2017,08,19,10,00,16.90
2017,08,19,10,01,16.90
2017,08,19,10,02,16.90
2017,08,19,10,03,17.00
2017,08,19,10,04,17.00
2017,08,19,10,05,17.00
2017,08,19,10,06,17.10
2017,08,19,10,07,17.10
2017,08,19,10,08,17.20
2017,08,19,10,09,17.20
2017,08,19,10,10,17.20
2017,08,19,10,11,17.20
2017,08,19,10,12,17.30
2017,08,19,10,13,17.30
2017,08,19,10,14,17.30
2017,08,19,10,15,17.30
2017,08,19,10,16,17.30
2017,08,19,10,17,17.30
2017,08,19,10,18,17.40
2017,08,19,10,19,17.50
2017,08,19,10,20,17.50
2017,08,19,10,21,17.60
2017,08,19,10,22,17.60
2017,08,19,10,23,17.60
2017,08,19,10,24,17.70
2017,08,19,10,25,17.70
2017,08,19,10,26,17.60
2017,08,19,10,27,17.60
2017,08,19,10,28,17.60
2017,08,19,10,29,17.70
2017,08,19,10,30,17.70
2017,08,19,10,31,17.80
2017,08,19,10,32,17.90
2017,08,19,10,33,18.00
2017,08,19,10,34,18.10
2017,08,19,10,35,18.10
2017,08,19,10,36,18.10
2017,08,19,10,37,18.10
2017,08,19,10,38,18.10
2017,08,19,10,39,18.10
2017,08,19,10,40,18.10
2017,08,19,10,41,18.20
2017,08,19,10,42,18.20
2017,08,19,10,43,18.20
2017,08,19,10,44,18.20
2017,08,19,10,45,18.20
2017,08,19,10,46,18.10
2017,08,19,10,47,18.10
2017,08,19,10,48,18.10
2017,08,19,10,49,18.10
2017,08,19,10,50,18.10
2017,08,19,10,51,18.10
2017,08,19,10,52,18.10
2017,08,19,10,53,18.20
2017,08,19,10,54,18.20
2017,08,19,10,55,18.30
2017,08,19,10,56,18.30
2017,08,19,10,57,18.30
2017,08,19,10,58,18.30
2017,08,19,10,59,18.30
2017,08,19,11,00,18.30
2017,08,19,11,01,18.30
2017,08,19,11,02,18.30
2017,08,19,11,03,18.40
2017,08,19,11,04,18.50
2017,08,19,11,05,18.60
2017,08,19,11,06,18.70
2017,08,19,11,07,18.80
2017,08,19,11,08,18.80
2017,08,19,11,09,18.80
2017,08,19,11,10,18.80
2017,08,19,11,11,18.80
2017,08,19,11,12,18.80
2017,08,19,11,13,18.80
2017,08,19,11,14,18.80
2017,08,19,11,15,18.70
2017,08,19,11,16,18.70
2017,08,19,11,17,18.80
2017,08,19,11,18,18.80
2017,08,19,11,19,18.80
2017,08,19,11,20,18.90
2017,08,19,11,21,18.90
2017,08,19,11,22,18.90
2017,08,19,11,23,18.90
2017,08,19,11,24,18.90
2017,08,19,11,25,19.00
2017,08,19,11,26,19.00
2017,08,19,11,27,19.00
2017,08,19,11,28,19.00
2017,08,19,11,29,19.00
2017,08,19,11,30,18.90
2017,08,19,11,31,18.90
2017,08,19,11,32,18.90
2017,08,19,11,33,18.80
2017,08,19,11,34,18.80
2017,08,19,11,35,18.90
2017,08,19,11,36,18.90
2017,08,19,11,37,19.00
2017,08,19,11,38,19.10
2017,08,19,11,39,19.20
2017,08,19,11,40,19.20
2017,08,19,11,41,19.20
2017,08,19,11,42,19.10
2017,08,19,11,43,19.10
2017,08,19,11,44,19.10
2017,08,19,11,45,19.10
2017,08,19,11,46,19.10
2017,08,19,11,47,19.20
2017,08,19,11,48,19.20
2017,08,19,11,49,19.20
2017,08,19,11,50,19.20
2017,08,19,11,51,19.20
2017,08,19,11,52,19.20
2017,08,19,11,53,19.20
2017,08,19,11,54,19.20
2017,08,19,11,55,19.20
2017,08,19,11,56,19.20
2017,08,19,11,57,19.20
2017,08,19,11,58,19.30
2017,08,19,11,59,19.30
2017,08,19,12,00,19.40
2017,08,19,12,01,19.40
2017,08,19,12,02,19.40
2017,08,19,12,03,19.50
2017,08,19,12,04,19.50
2017,08,19,12,05,19.50
2017,08,19,12,06,19.40
2017,08,19,12,07,19.40
2017,08,19,12,08,19.30
2017,08,19,12,09,19.30
2017,08,19,12,10,19.20
2017,08,19,12,11,19.30
2017,08,19,12,12,19.30
2017,08,19,12,13,19.40
2017,08,19,12,14,19.50
2017,08,19,12,15,19.50
2017,08,19,12,16,19.60
2017,08,19,12,17,19.60
2017,08,19,12,18,19.70
2017,08,19,12,19,19.80
2017,08,19,12,20,19.80
2017,08,19,12,21,19.90
2017,08,19,12,22,19.90
2017,08,19,12,23,20.00
2017,08,19,12,24,20.00
2017,08,19,12,25,20.10
2017,08,19,12,26,20.10
2017,08,19,12,27,20.10
2017,08,19,12,28,20.10
2017,08,19,12,29,20.10
2017,08,19,12,30,20.00
2017,08,19,12,31,20.00
2017,08,19,12,32,20.10
2017,08,19,12,33,20.10
2017,08,19,12,34,20.20
2017,08,19,12,35,20.20
2017,08,19,12,36,20.10
2017,08,19,12,37,20.10
2017,08,19,12,38,19.90
2017,08,19,12,39,19.90
2017,08,19,12,40,19.90
2017,08,19,12,41,19.90
2017,08,19,12,42,19.90
2017,08,19,12,43,19.90
2017,08,19,12,44,20.00
2017,08,19,12,45,20.10
2017,08,19,12,46,20.10
2017,08,19,12,47,20.20
2017,08,19,12,48,20.20
2017,08,19,12,49,20.20
2017,08,19,12,50,20.30
2017,08,19,12,51,20.30
2017,08,19,12,52,20.30
2017,08,19,12,53,20.40
2017,08,19,12,54,20.50
2017,08,19,12,55,20.50
2017,08,19,12,56,20.60
2017,08,19,12,57,20.60
2017,08,19,12,58,20.50
2017,08,19,12,59,20.50
2017,08,19,13,00,20.40
2017,08,19,13,01,20.30
2017,08,19,13,02,20.30
2017,08,19,13,03,20.30
2017,08,19,13,04,20.30
2017,08,19,13,05,20.30
2017,08,19,13,06,20.40
2017,08,19,13,07,20.40
2017,08,19,13,08,20.40
2017,08,19,13,09,20.40
2017,08,19,13,10,20.40
2017,08,19,13,11,20.40
2017,08,19,13,12,20.40
2017,08,19,13,13,20.40
2017,08,19,13,14,20.50
2017,08,19,13,15,20.60
2017,08,19,13,16,20.70
2017,08,19,13,17,20.70
2017,08,19,13,18,20.70
2017,08,19,13,19,20.70
2017,08,19,13,20,20.70
2017,08,19,13,21,20.70
2017,08,19,13,22,20.70
2017,08,19,13,23,20.80
2017,08,19,13,24,20.80
2017,08,19,13,25,20.90
2017,08,19,13,26,21.00
2017,08,19,13,27,20.90
2017,08,19,13,28,20.90
2017,08,19,13,29,20.90
2017,08,19,13,30,20.90
2017,08,19,13,31,21.00
2017,08,19,13,32,21.10
2017,08,19,13,33,21.10
2017,08,19,13,34,21.10
2017,08,19,13,35,21.10
2017,08,19,13,36,21.00
2017,08,19,13,37,21.10
2017,08,19,13,38,21.10
2017,08,19,13,39,21.10
2017,08,19,13,40,21.00
2017,08,19,13,41,21.00
2017,08,19,13,42,21.00
2017,08,19,13,43,21.00
2017,08,19,13,44,21.00
2017,08,19,13,45,21.10
2017,08,19,13,46,21.20
2017,08,19,13,47,21.20
2017,08,19,13,48,21.30
2017,08,19,13,49,21.30
2017,08,19,13,50,21.30
2017,08,19,13,51,21.30
2017,08,19,13,52,21.30
2017,08,19,13,53,21.30
2017,08,19,13,54,21.30
2017,08,19,13,55,21.30
2017,08,19,13,56,21.30
2017,08,19,13,57,21.30
2017,08,19,13,58,21.30
2017,08,19,13,59,21.30
2017,08,19,14,00,21.30
2017,08,19,14,01,21.30
2017,08,19,14,02,21.30
2017,08,19,14,03,21.30
2017,08,19,14,04,21.30
2017,08,19,14,05,21.30
2017,08,19,14,06,21.30
2017,08,19,14,07,21.40
2017,08,19,14,08,21.50
2017,08,19,14,09,21.50
2017,08,19,14,10,21.50
2017,08,19,14,11,21.50
2017,08,19,14,12,21.50
2017,08,19,14,13,21.50
2017,08,19,14,14,21.60
2017,08,19,14,15,21.60
2017,08,19,14,16,21.70
2017,08,19,14,17,21.80
2017,08,19,14,18,21.80
2017,08,19,14,19,21.90
2017,08,19,14,20,21.90
2017,08,19,14,21,21.90
2017,08,19,14,22,21.90
2017,08,19,14,23,21.90
2017,08,19,14,24,21.90
2017,08,19,14,25,21.90
2017,08,19,14,26,21.90
2017,08,19,14,27,21.90
2017,08,19,14,28,21.90
2017,08,19,14,29,22.00
2017,08,19,14,30,22.10
2017,08,19,14,31,22.20
2017,08,19,14,32,22.30
2017,08,19,14,33,22.30
2017,08,19,14,34,22.40
2017,08,19,14,35,22.40
2017,08,19,14,36,22.40
2017,08,19,14,37,22.40
2017,08,19,14,38,22.50
2017,08,19,14,39,22.60
2017,08,19,14,40,22.70
2017,08,19,14,41,22.70
2017,08,19,14,42,22.70
2017,08,19,14,43,22.60
2017,08,19,14,44,22.60
2017,08,19,14,45,22.50
2017,08,19,14,46,22.40
2017,08,19,14,47,22.40
2017,08,19,14,48,22.30
2017,08,19,14,49,22.20
2017,08,19,14,50,22.20
2017,08,19,14,51,22.20
2017,08,19,14,52,22.30
2017,08,19,14,53,22.30
2017,08,19,14,54,22.30
2017,08,19,14,55,22.20
2017,08,19,14,56,22.10
2017,08,19,14,57,22.00
2017,08,19,14,58,22.00
2017,08,19,14,59,21.90
2017,08,19,15,00,21.90
2017,08,19,15,01,21.90
2017,08,19,15,02,21.90
2017,08,19,15,03,21.80
2017,08,19,15,04,21.80
2017,08,19,15,05,21.80
2017,08,19,15,06,21.80
2017,08,19,15,07,21.80
2017,08,19,15,08,21.80
2017,08,19,15,09,21.90
2017,08,19,15,10,22.00
2017,08,19,15,11,22.10
2017,08,19,15,12,22.20
2017,08,19,15,13,22.30
2017,08,19,15,14,22.30
2017,08,19,15,15,22.30
2017,08,19,15,16,22.30
2017,08,19,15,17,22.30
2017,08,19,15,18,22.30
2017,08,19,15,19,22.30
2017,08,19,15,20,22.30
2017,08,19,15,21,22.40
2017,08,19,15,22,22.40
2017,08,19,15,23,22.50
2017,08,19,15,24,22.50
2017,08,19,15,25,22.60
2017,08,19,15,26,22.50
2017,08,19,15,27,22.50
2017,08,19,15,28,22.50
2017,08,19,15,29,22.50
2017,08,19,15,30,22.50
2017,08,19,15,31,22.50
2017,08,19,15,32,22.40
2017,08,19,15,33,22.40
2017,08,19,15,34,22.40
2017,08,19,15,35,22.40
2017,08,19,15,36,22.40
2017,08,19,15,37,22.40
2017,08,19,15,38,22.50
2017,08,19,15,39,22.50
2017,08,19,15,40,22.60
2017,08,19,15,41,22.70
2017,08,19,15,42,22.70
2017,08,19,15,43,22.80
2017,08,19,15,44,22.80
2017,08,19,15,45,22.80
2017,08,19,15,46,22.80
2017,08,19,15,47,22.80
2017,08,19,15,48,22.80
2017,08,19,15,49,22.80
2017,08,19,15,50,22.80
2017,08,19,15,51,22.80
2017,08,19,15,52,22.80
2017,08,19,15,53,22.80
2017,08,19,15,54,22.80
2017,08,19,15,55,22.90
2017,08,19,15,56,22.90
2017,08,19,15,57,22.80
2017,08,19,15,58,22.80
2017,08,19,15,59,22.70
2017,08,19,16,00,22.60
2017,08,19,16,01,22.50
2017,08,19,16,02,22.50
2017,08,19,16,03,22.50
2017,08,19,16,04,22.50
2017,08,19,16,05,22.50
2017,08,19,16,06,22.60
2017,08,19,16,07,22.60
2017,08,19,16,08,22.70
2017,08,19,16,09,22.70
2017,08,19,16,10,22.70
2017,08,19,16,11,22.70
2017,08,19,16,12,22.70
2017,08,19,16,13,22.60
2017,08,19,16,14,22.60
2017,08,19,16,15,22.60
2017,08,19,16,16,22.60
2017,08,19,16,17,22.60
2017,08,19,16,18,22.60
2017,08,19,16,19,22.60
2017,08,19,16,20,22.60
2017,08,19,16,21,22.60
2017,08,19,16,22,22.60
2017,08,19,16,23,22.60
2017,08,19,16,24,22.70
2017,08,19,16,25,22.70
2017,08,19,16,26,22.70
2017,08,19,16,27,22.70
2017,08,19,16,28,22.70
2017,08,19,16,29,22.60
2017,08,19,16,30,22.60
2017,08,19,16,31,22.70
2017,08,19,16,32,22.70
2017,08,19,16,33,22.70
2017,08,19,16,34,22.60
2017,08,19,16,35,22.60
2017,08,19,16,36,22.60
2017,08,19,16,37,22.70
2017,08,19,16,38,22.70
2017,08,19,16,39,22.80
2017,08,19,16,40,22.80
2017,08,19,16,41,22.90
2017,08,19,16,42,22.90
2017,08,19,16,43,23.00
2017,08,19,16,44,23.00
2017,08,19,16,45,23.10
2017,08,19,16,46,23.10
2017,08,19,16,47,23.10
2017,08,19,16,48,23.20
2017,08,19,16,49,23.20
2017,08,19,16,50,23.20
2017,08,19,16,51,23.20
2017,08,19,16,52,23.20
2017,08,19,16,53,23.20
2017,08,19,16,54,23.10
2017,08,19,16,55,23.00
2017,08,19,16,56,22.90
2017,08,19,16,57,22.90
2017,08,19,16,58,22.80
2017,08,19,16,59,22.80
2017,08,19,17,00,22.80
2017,08,19,17,01,22.90
2017,08,19,17,02,22.80
2017,08,19,17,03,22.90
2017,08,19,17,04,22.90
2017,08,19,17,05,22.80
2017,08,19,17,06,22.80
2017,08,19,17,07,22.80
2017,08,19,17,08,22.80
2017,08,19,17,09,22.70
2017,08,19,17,10,22.60
2017,08,19,17,11,22.60
2017,08,19,17,12,22.50
2017,08,19,17,13,22.50
2017,08,19,17,14,22.50
2017,08,19,17,15,22.50
2017,08,19,17,16,22.50
2017,08,19,17,17,22.50
2017,08,19,17,18,22.50
2017,08,19,17,19,22.50